"Pseudo-MPEC" for TF26G47

Created 2026 Jul 23 10:35:11 UT using Find_Orb

Click here for an explanation of pseudo-MPECs

 
 Astrometry: 
     TF26G47* C2026 07 18.23606018 44 41.071+18 58 44.67   ~7I7Z 19.45GVNEOCPU74
     TF26G47  C2026 07 18.23866718 44 27.666+18 59 57.14   ~7I7Z 19.45GVNEOCPU74

Station data:
(U74) JPL SynTrack Robotic Telescope 2, Auberry  (N37.070341 W119.412800)
   US/California.  Observers N. Saini, C. Zhai, R. Trahan, M. Zhan, M. Shao.
   0.36-m f/2.2 Schmidt.

Orbital elements:  TF26G47
   Perihelion 2026 Sep 23.127929 +/- 63.2 TT =  3:04:13.1 (JD 2461306.627929)
Epoch 2026 Jul 18.0 TT = JDT 2461239.5   Earth MOID: 0.0325      AutoNEOCP
M 225.255507008 +/- 90              (J2000 ecliptic)
n   2.007279148 +/- 0.869           Peri.  171.752525 +/- 70
a   0.622392284 +/- 0.18            Node   293.538206 +/- 70
e   0.75088705 +/- 0.239            Incl.   39.379821 +/- 43
P   0.491/179.344d         H 25.43  G  0.15   U 12.7  SR
q 0.155045975 +/- 0.28    Q 1.089738593 +/- 11.3
From 2 observations 2026 July 18 (3.8 min); mean residual 0".01
Residuals in arcseconds: 
260718 U74  .01+  .00     260718 U74  .01+  .00     

Ephemerides (geocentric):
Date (UTC) HH   RA             Dec           delta  r     elong  mag " sig PA
---- --------  ------------   ------------  ------ ------ -----  --- --------
2026 07 23 11  14 39 55.864   +27 34 28.21  .07660 1.0149  87.1 23.0  44d 105
2026 07 23 12  14 39 12.184   +27 33 32.75  .07707 1.0147  87.0 23.0  44d 105
2026 07 23 13  14 38 29.039   +27 32 37.13  .07753 1.0145  86.8 23.0  44d 105
2026 07 23 14  14 37 46.419   +27 31 41.36  .07800 1.0143  86.6 23.1  44d 105
2026 07 23 15  14 37 04.317   +27 30 45.47  .07846 1.0140  86.4 23.1  44d 105
2026 07 23 16  14 36 22.722   +27 29 49.46  .07893 1.0138  86.3 23.1  44d 105
2026 07 23 17  14 35 41.627   +27 28 53.36  .07939 1.0136  86.1 23.1  44d 105
2026 07 23 18  14 35 01.024   +27 27 57.18  .07986 1.0133  85.9 23.1  44d 105
2026 07 23 19  14 34 20.904   +27 27 00.94  .08033 1.0131  85.8 23.1  44d 105
2026 07 23 20  14 33 41.258   +27 26 04.66  .08080 1.0129  85.6 23.2  44d 105
2026 07 23 21  14 33 02.080   +27 25 08.34  .08127 1.0126  85.5 23.2  44d 105
2026 07 23 22  14 32 23.362   +27 24 12.01  .08173 1.0124  85.3 23.2  44d 105
2026 07 23 23  14 31 45.096   +27 23 15.67  .08220 1.0122  85.1 23.2  44d 105
2026 07 24 00  14 31 07.274   +27 22 19.34  .08267 1.0120  85.0 23.2  44d 105
2026 07 24 01  14 30 29.889   +27 21 23.04  .08314 1.0117  84.8 23.3  44d 105
2026 07 24 02  14 29 52.935   +27 20 26.76  .08362 1.0115  84.7 23.3  44d 105
2026 07 24 03  14 29 16.404   +27 19 30.53  .08409 1.0113  84.5 23.3  44d 105
2026 07 24 04  14 28 40.289   +27 18 34.35  .08456 1.0110  84.4 23.3  44d 105
2026 07 24 05  14 28 04.584   +27 17 38.24  .08503 1.0108  84.2 23.3  44d 105
2026 07 24 06  14 27 29.282   +27 16 42.20  .08550 1.0106  84.1 23.3  44d 105
2026 07 24 07  14 26 54.377   +27 15 46.24  .08598 1.0103  83.9 23.4  44d 105
2026 07 24 08  14 26 19.862   +27 14 50.37  .08645 1.0101  83.8 23.4  44d 105
2026 07 24 09  14 25 45.731   +27 13 54.61  .08692 1.0098  83.6 23.4  44d 105
2026 07 24 10  14 25 11.978   +27 12 58.95  .08740 1.0096  83.5 23.4  44d 105
2026 07 24 11  14 24 38.597   +27 12 03.41  .08787 1.0094  83.3 23.4  45d 105
2026 07 24 12  14 24 05.582   +27 11 07.99  .08835 1.0091  83.2 23.4  45d 105
2026 07 24 13  14 23 32.928   +27 10 12.70  .08882 1.0089  83.1 23.4  45d 105
2026 07 24 14  14 23 00.628   +27 09 17.54  .08930 1.0087  82.9 23.5  45d 105
2026 07 24 15  14 22 28.678   +27 08 22.53  .08978 1.0084  82.8 23.5  45d 105
2026 07 24 16  14 21 57.072   +27 07 27.66  .09025 1.0082  82.7 23.5  45d 105
2026 07 24 17  14 21 25.804   +27 06 32.95  .09073 1.0080  82.5 23.5  45d 105
2026 07 24 18  14 20 54.869   +27 05 38.40  .09121 1.0077  82.4 23.5  45d 105
2026 07 24 19  14 20 24.263   +27 04 44.01  .09168 1.0075  82.2 23.5  45d 105
2026 07 24 20  14 19 53.980   +27 03 49.79  .09216 1.0072  82.1 23.6  45d 105
2026 07 24 21  14 19 24.015   +27 02 55.74  .09264 1.0070  82.0 23.6  45d 105
2026 07 24 22  14 18 54.364   +27 02 01.88  .09312 1.0068  81.9 23.6  45d 105
2026 07 24 23  14 18 25.021   +27 01 08.19  .09360 1.0065  81.7 23.6  45d 105
2026 07 25 00  14 17 55.982   +27 00 14.69  .09407 1.0063  81.6 23.6  45d 105
2026 07 25 01  14 17 27.243   +26 59 21.38  .09455 1.0060  81.5 23.6  45d 105
2026 07 25 02  14 16 58.798   +26 58 28.26  .09503 1.0058  81.3 23.6  45d 105
2026 07 25 03  14 16 30.645   +26 57 35.33  .09551 1.0056  81.2 23.7  45d 105
2026 07 25 04  14 16 02.777   +26 56 42.61  .09599 1.0053  81.1 23.7  45d 105
2026 07 25 05  14 15 35.191   +26 55 50.09  .09647 1.0051  81.0 23.7  45d 105
2026 07 25 06  14 15 07.884   +26 54 57.77  .09695 1.0048  80.8 23.7  45d 105
2026 07 25 07  14 14 40.850   +26 54 05.66  .09743 1.0046  80.7 23.7  45d 105
2026 07 25 08  14 14 14.085   +26 53 13.75  .09792 1.0043  80.6 23.7  45d 105
2026 07 25 09  14 13 47.587   +26 52 22.06  .09840 1.0041  80.5 23.7  45d 105
2026 07 25 10  14 13 21.350   +26 51 30.59  .09888 1.0039  80.4 23.8  45d 105